User: anonymous   Login
Location: Fort Wayne
(41.1310°N, 85.1290°W)
Time: 20:33:51
(UTC-04:00)
Language:

Cosmos 1953 - Orbit

View from above orbital plane
View from above orbital plane
View from above satellite
View from above satellite

Ground track
Ground track

The orbit data is extracted from the following two-line orbital elements,

1 19210U 88050A   15116.83292103  .00003045  00000-0  21945-3 0  9992
2 19210 082.5187 071.1440 0015181 051.0732 309.1844 15.03744649460199
Epoch (UTC): 26 April 2015 19:59:24
Eccentricity: 0.0015181
inclination: 82.5187°
perigee height: 545 km
apogee height: 566 km
right ascension of ascending node: 71.1440°
argument of perigee: 51.0732°
revolutions per day: 15.03744649
mean anomaly at epoch: 309.1844°
orbit number at epoch: 46019

The dashed part of the orbit path shows where the satellite is in the earth's shadow,  

DLR